GW1347 Weather Reports


time (UTC)temp
C
wind
direction
speed
KPH
gust
KPH
rain 1hr
cm
rain 24hr
cm
rain mn
cm
humidity
%
barometer
mb
20260503223826 16 212 16.1 30.6 0.00 0.00 0.00 42 1012.5
20260503222804 16 202 16.1 30.6 0.00 0.00 0.00 44 1012.2
20260503221818 16 231 12.9 27.4 0.00 0.00 0.00 44 1013.1
20260503215715 16 184 12.9 25.7 0.00 0.00 0.00 46 1013.0
20260503213547 17 191 14.5 30.6 0.00 0.00 0.00 39 1013.5
20260503212515 17 201 12.9 30.6 0.00 0.00 0.00 39 1013.6
20260503211451 17 165 17.7 30.6 0.00 0.00 0.00 38 1014.1
20260503210513 17 233 14.5 27.4 0.00 0.00 0.00 38 1014.5
20260503205517 17 210 14.5 25.7 0.00 0.00 0.00 38 1014.6
20260503203320 18 313 11.3 25.7 0.00 0.00 0.00 37 1014.9
20260503202250 18 230 12.9 29.0 0.00 0.00 0.00 39 1014.7
20260503201219 18 236 14.5 32.2 0.00 0.00 0.00 37 1015.1
20260503200206 17 224 12.9 32.2 0.00 0.00 0.00 37 1015.4
20260503195138 17 218 9.7 29.0 0.00 0.00 0.00 38 1015.6
20260503194139 17 259 14.5 29.0 0.00 0.00 0.00 36 1015.7
20260503193155 17 235 12.9 29.0 0.00 0.00 0.00 36 1015.6
20260503191056 17 219 14.5 30.6 0.00 0.00 0.00 37 1015.9
20260503190103 17 220 12.9 29.0 0.00 0.00 0.00 34 1016.0
20260503185127 17 243 16.1 29.0 0.00 0.00 0.00 35 1016.2
20260503184133 17 186 16.1 41.8 0.00 0.00 0.00 34 1016.6
20260503183124 17 227 14.5 41.8 0.00 0.00 0.00 32 1016.8
20260503182113 17 168 12.9 29.0 0.00 0.00 0.00 35 1017.1
20260503181043 16 217 14.5 30.6 0.00 0.00 0.00 34 1017.4
20260503174924 16 246 9.7 32.2 0.00 0.00 0.00 34 1017.8
20260503173946 16 227 12.9 32.2 0.00 0.00 0.00 34 1017.8
20260503172935 16 255 9.7 22.5 0.00 0.00 0.00 33 1017.8
20260503171947 16 237 12.9 25.7 0.00 0.00 0.00 33 1018.0
20260503170913 15 282 17.7 33.8 0.00 0.00 0.00 34 1018.1
20260503150244 13 231 9.7 25.7 0.00 0.00 0.00 40 1019.6
20260503131022 8 219 4.8 14.5 0.00 0.00 0.00 62 1020.1
20260503090125 3 224 3.2 6.4 0.00 0.00 0.00 81 1019.0
20260503080923 3 269 0.0 0.0 0.00 0.00 0.00 86 1018.8
20260503071946 2 269 0.0 0.0 0.00 0.00 0.00 89 1018.9
20260503070944 3 269 0.0 0.0 0.00 0.00 0.00 89 1018.9
20260503054621 3 269 0.0 0.0 0.00 0.00 0.00 87 1019.4
20260503053622 3 269 0.0 0.0 0.00 0.00 0.00 88 1019.4
20260503052640 3 269 0.0 0.0 0.00 0.00 0.00 88 1019.5
20260503051647 3 269 0.0 0.0 0.00 0.00 0.00 87 1019.5
20260503050615 3 269 0.0 0.0 0.00 0.00 0.00 87 1019.6
20260503045625 3 269 0.0 0.0 0.00 0.00 0.00 85 1019.6
20260503044608 4 269 0.0 0.0 0.00 0.00 0.00 81 1019.5
20260503041311 5 269 0.0 0.0 0.00 0.00 0.00 78 1019.2
20260503040255 5 269 0.0 0.0 0.00 0.00 0.00 76 1019.4
20260503035317 5 269 0.0 0.0 0.00 0.00 0.00 76 1019.4
20260503034326 5 269 0.0 0.0 0.00 0.00 0.00 75 1019.4
20260503032130 5 269 0.0 0.0 0.00 0.00 0.00 75 1019.4
20260503030000 6 269 0.0 0.0 0.00 0.00 0.00 70 1019.5
20260503021543 7 269 0.0 0.0 0.00 0.00 0.00 62 1019.2
20260503020551 7 269 0.0 1.6 0.00 0.00 0.00 58 1019.1
20260503015605 8 25 0.0 0.0 0.00 0.00 0.00 52 1018.9
20260503013459 8 314 0.0 0.0 0.00 0.00 0.00 53 1018.7
20260503012519 8 301 0.0 0.0 0.00 0.00 0.00 49 1018.6
20260503011536 10 347 0.0 0.0 0.00 0.00 0.00 46 1018.4
20260503010554 10 328 0.0 1.6 0.00 0.00 0.00 44 1018.4
20260503005548 10 343 0.0 6.4 0.00 0.00 0.00 43 1018.5
20260503004557 10 290 1.6 9.7 0.00 0.00 0.00 43 1018.5
20260503003622 10 334 1.6 11.3 0.00 0.00 0.00 42 1018.4
20260503002603 10 343 1.6 11.3 0.00 0.00 0.00 41 1018.4
20260503001621 11 286 1.6 8.0 0.00 0.00 0.00 40 1018.2
20260503000549 11 30 1.6 11.3 0.00 0.00 0.00 38 1018.1
20260502235523 11 302 3.2 11.3 0.00 0.00 0.00 38 1018.0
20260502234504 11 324 4.8 9.7 0.00 0.00 0.00 37 1017.9
20260502233458 11 239 4.8 12.9 0.00 0.00 0.00 38 1018.0
20260502232445 11 309 3.2 14.5 0.00 0.00 0.00 37 1018.0
20260502231452 11 343 4.8 14.5 0.00 0.00 0.00 37 1018.0
20260502230427 11 298 3.2 12.9 0.00 0.00 0.00 37 1018.0
20260502225443 12 301 1.6 9.7 0.00 0.00 0.00 36 1017.9